Date,TemperatureHighF,TemperatureAvgF,TemperatureLowF,DewpointHighF,DewpointAvgF,DewpointLowF,HumidityHigh,HumidityAvg,HumidityLow,PressureMaxIn,PressureMinIn,WindSpeedMaxMPH,WindSpeedAvgMPH,GustSpeedMaxMPH,PrecipitationSumIn
2013-1-1,39.7,36.1,32.0,17.2,12.5,8.1,50,38,30,28.94,28.85,8,0,8,0.00
2013-1-2,36.5,28.1,22.5,9.4,1.1,-6.0,41,31,22,29.12,28.91,12,1,12,0.00
2013-1-3,32.7,27.6,22.5,4.7,2.8,0.7,39,34,30,29.12,29.09,0,0,0,0.00
2013-1-4,37.4,32.1,29.1,6.8,4.4,2.5,36,30,24,29.09,29.00,24,1,27,0.00
2013-1-5,44.4,33.7,26.2,12.7,5.9,2.8,42,31,20,29.26,29.03,8,0,8,0.00
2013-1-6,43.0,37.4,31.5,17.4,11.8,8.4,48,35,25,29.09,28.94,9,0,10,0.00
2013-1-7,42.4,34.6,26.4,15.8,9.3,4.5,54,35,23,29.35,29.09,7,0,8,0.00
2013-1-8,54.7,33.8,22.5,23.5,15.6,7.1,84,52,19,29.29,29.20,6,0,6,0.00
2013-1-9,54.3,38.5,27.9,27.0,20.4,13.1,78,51,28,29.32,29.14,13,1,13,0.00
2013-1-10,54.3,43.0,34.3,15.6,11.3,7.1,42,28,18,29.50,29.32,10,0,10,0.00
2013-1-11,45.3,41.7,38.7,39.5,23.1,10.1,86,53,28,29.35,29.03,6,0,6,0.00
2013-1-12,63.1,48.9,42.1,51.4,39.4,30.8,85,73,31,29.09,29.00,4,0,4,0.00
2013-1-13,55.4,50.8,47.7,50.0,44.2,37.4,84,78,52,29.03,28.88,3,0,3,0.00
2013-1-14,59.0,47.8,37.8,53.5,29.0,12.3,84,52,29,29.26,28.88,10,1,10,0.00
2013-1-15,39.4,37.5,35.1,35.2,29.4,16.5,87,74,41,29.29,29.06,4,0,4,0.00
2013-1-16,43.5,38.8,35.6,39.3,30.6,14.4,87,75,33,29.06,28.79,10,0,10,0.16
2013-1-17,41.2,36.7,33.1,20.9,13.5,7.4,57,39,26,29.06,28.91,11,0,11,0.16
2013-1-18,37.0,29.9,24.3,15.6,1.7,-4.4,50,30,22,29.35,29.03,12,1,12,0.00
2013-1-19,60.3,40.3,21.6,17.9,8.1,-0.1,56,29,17,29.23,28.82,12,2,12,0.00
2013-1-20,52.5,43.1,28.2,11.0,5.3,-4.7,28,21,18,29.00,28.73,15,1,15,0.00
2013-1-21,42.8,29.4,19.2,5.3,-2.1,-11.0,32,25,20,29.00,28.73,13,2,15,0.00
2013-1-22,19.0,13.2,7.9,-11.0,-14.9,-19.1,27,27,25,29.14,28.88,20,4,20,0.00
2013-1-23,22.1,14.3,5.5,-1.1,-13.9,-21.2,45,27,25,29.17,28.97,11,1,13,0.00
2013-1-24,25.2,17.3,11.8,5.1,-5.3,-16.3,62,39,24,29.35,28.94,15,2,15,0.00
2013-1-25,19.2,15.3,10.6,8.5,-5.8,-16.8,67,40,26,29.35,28.91,8,0,8,0.00
2013-1-26,31.8,24.5,15.3,13.6,7.8,0.3,74,50,32,29.32,28.91,10,0,10,0.00
2013-1-27,38.8,26.8,16.3,8.7,2.9,-0.4,53,36,22,29.41,29.29,5,0,6,0.00
2013-1-28,56.5,37.8,28.2,48.4,27.9,5.2,87,70,36,29.29,28.97,12,1,12,0.33
2013-1-29,70.0,59.4,52.9,48.0,39.1,30.6,79,49,24,29.06,28.88,10,1,10,0.33
2013-1-30,69.6,59.3,52.0,54.6,45.5,33.4,83,63,33,28.88,28.26,14,2,14,1.16
2013-1-31,56.7,35.8,25.5,51.2,11.6,-4.1,83,38,25,30.00,28.20,24,3,26,0.13
2013-2-1,26.8,20.1,12.9,14.6,-5.2,-13.6,67,33,24,29.23,28.70,14,2,15,0.00
2013-2-2,27.3,18.4,8.4,15.1,-5.5,-17.5,75,36,23,29.23,28.88,7,1,8,0.00
2013-2-3,33.6,26.9,21.6,22.4,12.2,-2.1,82,57,31,28.91,28.70,10,0,10,0.00
2013-2-4,34.2,27.5,20.8,27.0,7.1,-4.1,85,46,22,28.94,28.79,10,0,11,0.00
2013-2-5,38.3,34.3,31.1,34.2,26.2,15.3,87,74,40,28.88,28.76,8,0,10,0.00
2013-2-6,35.8,33.0,25.3,24.9,12.6,6.6,66,43,31,29.23,28.85,8,0,8,0.00
2013-2-7,37.4,31.5,23.9,12.6,8.3,6.2,60,38,29,29.26,29.09,11,0,11,0.00
2013-2-8,39.2,34.1,29.5,32.6,18.9,4.7,82,55,34,29.09,28.73,16,0,16,0.00
2013-2-9,37.6,29.0,23.9,7.3,1.5,-3.9,42,30,22,29.29,28.94,13,1,13,0.00
2013-2-10,49.1,32.1,17.6,8.5,4.5,1.9,61,34,19,29.29,29.09,6,1,6,0.00
2013-2-11,66.4,47.9,35.6,43.6,24.5,2.9,86,50,16,29.09,28.64,17,2,18,0.00
2013-2-12,56.3,43.7,35.4,15.6,7.3,1.4,30,22,18,28.94,28.76,13,2,13,0.00
2013-2-13,42.8,34.7,27.5,33.4,17.8,5.5,87,54,26,28.85,28.58,5,0,5,0.00
2013-2-14,48.4,37.3,28.6,33.6,15.2,8.1,86,43,22,28.91,28.70,9,1,9,0.00
2013-2-15,50.0,37.8,30.4,34.1,21.2,9.3,86,55,22,28.91,28.85,10,0,10,0.00
2013-2-16,36.0,31.1,23.5,32.2,7.1,-6.4,86,39,23,28.91,28.79,8,0,8,0.00
2013-2-17,25.0,21.7,19.2,5.0,-4.4,-10.7,50,32,24,29.12,28.76,14,1,14,0.00
2013-2-18,46.0,28.2,12.7,6.9,-3.6,-12.1,36,25,20,29.20,29.00,10,1,11,0.00
2013-2-19,54.5,36.6,28.6,32.6,11.7,-1.9,79,38,23,29.00,28.61,16,2,16,0.00
2013-2-20,31.3,25.3,21.0,4.2,-4.7,-9.3,31,26,23,29.06,28.79,15,0,15,0.00
2013-2-21,34.2,24.9,20.8,2.0,-3.5,-7.9,38,28,23,29.23,29.00,13,1,13,0.00
2013-2-22,31.1,27.2,22.8,16.4,8.1,-1.3,57,45,31,29.23,29.03,8,0,8,0.00
2013-2-23,31.1,31.1,31.1,16.0,16.0,16.0,53,53,53,29.03,29.03,0,0,0,0.00
2013-2-24,29.3,29.1,28.8,2.4,1.8,1.4,31,30,30,29.06,29.03,0,0,0,0.00
2013-2-25,48.4,35.1,25.3,8.9,4.2,-0.4,43,28,19,29.12,29.03,6,1,6,0.00
2013-2-26,39.9,35.3,29.8,35.5,18.4,3.4,86,55,30,29.09,28.61,8,1,8,0.00
2013-2-27,46.6,42.1,39.0,42.0,24.7,13.5,87,55,28,28.64,28.52,13,1,13,0.00
2013-2-28,40.3,36.9,34.2,17.3,11.4,8.0,41,34,29,28.67,28.55,9,0,9,0.00
2013-3-1,38.3,34.6,30.0,13.7,9.4,4.0,42,35,26,28.82,28.67,0,0,0,0.00
2013-3-2,33.3,28.8,26.1,6.4,3.2,-0.2,42,33,28,28.82,28.73,10,0,10,0.00
2013-3-3,38.1,29.0,25.3,7.1,1.6,-2.8,43,31,21,28.88,28.76,21,1,21,0.00
2013-3-4,40.6,29.4,23.7,3.8,-0.1,-3.9,36,28,21,28.97,28.85,14,1,14,0.00
2013-3-5,51.3,36.8,25.5,19.2,5.4,1.2,58,28,19,28.97,28.73,9,1,9,0.00
2013-3-6,39.4,36.3,32.4,33.2,23.9,9.9,87,65,31,29.00,28.67,8,0,8,0.00
2013-3-7,44.4,38.4,35.2,14.2,9.6,5.9,40,30,23,29.14,29.00,10,0,10,0.16
2013-3-8,43.7,36.3,32.2,12.1,9.5,7.2,42,33,25,29.29,29.09,13,1,13,0.00
2013-3-9,60.1,40.0,26.8,17.4,11.1,2.5,57,33,17,29.29,29.17,6,1,6,0.00
2013-3-10,65.8,46.6,29.7,21.0,12.5,4.0,52,27,17,29.20,29.09,9,2,9,0.00
2013-3-11,58.1,50.5,43.0,35.8,15.3,4.7,51,26,17,29.09,28.79,9,1,9,0.00
2013-3-12,56.1,46.6,37.9,44.3,24.9,9.3,76,44,29,28.94,28.67,10,1,10,0.17
2013-3-13,44.6,35.3,28.6,14.7,8.0,2.0,48,32,20,28.97,28.85,19,2,19,0.00
2013-3-14,41.2,32.4,27.0,3.9,0.4,-3.3,33,25,21,29.03,28.97,19,2,19,0.00
2013-3-15,54.3,40.8,26.4,14.9,7.9,0.2,41,26,19,29.03,28.73,15,2,15,0.00
2013-3-16,46.0,40.5,35.6,32.5,24.0,14.0,81,54,32,28.85,28.58,7,1,8,0.00
2013-3-17,39.4,35.5,32.7,31.2,15.1,4.9,84,48,26,29.14,28.85,0,0,0,0.00
2013-3-18,34.3,31.9,29.7,27.9,18.8,3.4,79,60,27,29.17,28.85,8,0,8,0.00
2013-3-19,52.5,41.1,34.0,35.5,17.1,0.7,87,47,18,28.85,28.67,19,3,19,0.25
2013-3-20,47.5,36.9,26.1,12.4,3.3,-5.0,41,24,19,28.91,28.73,22,3,22,0.25
2013-3-21,32.9,26.3,21.2,5.9,-2.7,-8.1,42,28,23,28.82,28.73,10,1,11,0.00
2013-3-22,42.8,31.8,24.1,5.4,-0.6,-7.2,31,25,20,28.94,28.76,16,2,16,0.00
2013-3-23,51.8,35.8,22.5,10.7,5.7,-1.5,49,30,18,28.94,28.85,13,2,13,0.00
2013-3-24,42.1,32.8,26.4,27.0,9.5,1.5,78,40,21,28.94,28.58,5,0,6,0.00
2013-3-25,37.0,34.7,32.5,32.7,26.8,17.5,87,74,50,28.70,28.47,6,0,6,0.16
2013-3-26,45.7,38.3,34.3,32.7,18.2,5.4,88,50,22,28.97,28.64,8,1,10,0.46
2013-3-27,43.9,37.4,32.9,18.2,11.5,4.7,53,35,23,29.09,28.94,12,0,12,0.00
2013-3-28,42.1,38.2,33.1,16.5,12.4,10.1,48,35,28,29.20,29.03,9,0,9,0.00
2013-3-29,54.1,46.5,37.4,15.0,9.3,4.2,39,22,18,29.17,29.09,12,2,12,0.00
2013-3-30,60.3,44.2,30.2,17.7,10.4,3.0,45,26,17,29.14,29.03,10,1,10,0.00
2013-3-31,47.7,43.9,38.5,43.4,27.2,2.6,85,59,20,29.06,28.70,5,0,5,0.00
2013-4-1,53.1,43.4,30.9,42.4,20.0,-0.4,85,43,21,28.94,28.70,14,2,14,0.00
2013-4-2,45.5,34.6,26.1,6.3,2.2,-3.7,34,25,20,29.12,28.91,15,2,15,0.00
2013-4-3,47.8,34.8,25.5,7.6,1.1,-5.9,32,24,19,29.29,29.09,12,2,12,0.00
2013-4-4,50.7,35.9,21.2,9.8,1.5,-7.3,36,23,19,29.29,28.97,8,1,8,0.00
2013-4-5,62.6,47.6,34.2,19.6,10.1,1.0,40,22,17,29.03,28.82,15,3,15,0.00
2013-4-6,59.2,43.9,28.0,17.0,7.1,-0.7,38,22,17,29.20,29.03,8,2,8,0.00
2013-4-7,72.7,55.6,39.2,24.4,14.9,4.2,28,20,16,29.09,28.91,12,2,12,0.00
2013-4-8,79.5,64.8,50.7,27.3,23.6,19.6,36,22,15,29.03,28.91,10,1,13,0.00
2013-4-9,87.4,71.8,58.6,31.4,26.5,18.5,31,19,13,29.09,28.94,11,2,12,0.00
2013-4-10,89.2,77.4,64.8,32.0,27.6,21.2,23,16,13,29.00,28.82,14,4,14,0.00
2013-4-11,84.9,70.1,57.9,40.2,32.8,23.5,48,28,13,28.91,28.73,10,2,14,0.00
2013-4-12,75.7,60.8,49.5,54.2,38.5,14.2,83,52,16,28.82,28.58,14,2,14,0.04
2013-4-13,66.9,53.1,44.1,22.5,16.2,8.3,40,24,16,28.94,28.79,14,3,14,0.00
2013-4-14,70.0,53.0,40.1,23.2,16.4,8.4,39,24,17,29.09,28.94,10,1,10,0.00
2013-4-15,64.8,59.4,54.3,36.7,24.3,15.3,48,27,19,29.20,29.06,11,2,11,0.00
2013-4-16,83.1,66.0,55.4,52.6,36.3,30.1,71,37,16,29.20,29.06,10,2,10,0.33
2013-4-17,73.2,64.3,58.5,59.9,46.5,33.1,82,57,24,29.20,29.12,10,1,10,0.08
2013-4-18,77.7,66.1,59.9,50.8,40.8,33.3,70,42,21,29.20,28.94,11,2,11,0.08
2013-4-19,74.8,63.5,48.6,50.6,36.8,17.9,76,38,24,28.97,28.61,17,3,18,0.71
2013-4-20,56.8,46.8,37.2,19.6,11.6,4.5,42,24,17,29.32,28.82,19,3,19,0.00
2013-4-21,57.9,43.0,31.1,16.4,8.1,3.8,38,24,17,29.50,29.29,8,1,8,0.00
2013-4-22,61.9,47.7,37.8,19.2,11.2,4.7,36,23,17,29.47,29.32,9,1,9,0.00
2013-4-23,67.3,50.2,35.6,26.8,19.9,14.0,52,32,17,29.35,29.03,7,1,7,0.00
2013-4-24,79.7,58.1,43.0,52.0,31.0,19.5,77,41,15,29.03,28.70,13,2,13,0.12
2013-4-25,66.6,50.8,40.3,21.3,14.8,8.6,38,24,16,29.26,29.03,12,2,12,0.12
2013-4-26,71.2,53.1,46.4,24.2,16.1,9.9,29,23,17,29.38,29.23,5,2,6,0.00
2013-4-27,75.7,56.7,38.1,25.7,19.6,11.0,50,25,15,29.32,29.20,4,0,4,0.00
2013-4-28,58.6,52.3,49.1,44.3,31.1,15.6,76,47,25,29.20,29.06,0,0,0,0.00
2013-4-29,59.0,55.2,50.7,51.8,44.6,34.3,83,68,50,29.06,28.97,0,0,4,0.00
2013-4-30,59.4,56.3,53.8,53.2,48.7,38.2,84,76,54,29.23,29.03,4,0,4,0.00
2013-5-1,76.8,60.5,50.2,50.3,28.0,12.9,84,35,15,29.35,29.20,3,0,3,0.00
2013-5-2,76.8,58.9,43.5,39.3,25.7,14.7,74,32,15,29.35,29.26,3,0,3,0.00
2013-5-3,73.4,57.3,45.5,42.2,27.0,17.2,79,36,16,29.32,29.20,0,0,0,0.00
2013-5-4,72.9,56.0,43.0,33.7,23.9,16.1,64,32,16,29.26,29.12,2,0,2,0.00
2013-5-5,70.9,55.1,43.5,30.5,23.2,15.3,55,31,17,29.17,29.06,0,0,0,0.00
2013-5-6,58.8,52.6,45.1,53.7,39.2,24.9,83,61,38,29.12,29.03,0,0,0,0.00
2013-5-7,61.0,59.3,57.9,55.5,53.8,52.5,83,82,81,29.06,28.91,0,0,2,1.45
2013-5-8,73.6,58.7,54.0,55.3,49.4,33.8,83,74,24,28.97,28.91,0,0,0,1.45
2013-5-9,78.1,60.9,53.4,55.1,47.4,37.2,83,65,24,29.00,28.85,0,0,0,0.00
2013-5-10,86.7,63.8,54.1,60.0,50.6,33.3,84,68,16,29.00,28.85,8,0,8,0.50
2013-5-11,64.0,63.1,62.6,57.8,57.0,56.3,81,80,80,28.88,28.79,0,0,0,0.25
2013-5-13,41.4,40.6,39.9,15.6,14.5,13.4,36,34,32,29.14,29.12,0,0,0,0.25
2013-5-14,65.1,48.3,32.4,34.7,21.7,13.5,88,41,18,29.15,28.97,0,0,0,0.00
2013-5-15,95.4,66.9,47.1,43.5,33.7,20.8,64,33,11,29.03,28.73,0,0,3,0.00
2013-5-16,79.0,70.0,63.0,57.9,44.6,31.1,82,44,20,28.97,28.79,0,0,0,0.09
2013-5-17,87.8,69.7,58.6,58.1,45.7,27.6,83,50,13,29.12,28.97,0,0,0,0.09
2013-5-18,70.7,64.2,60.1,54.9,45.7,34.8,82,53,33,29.17,29.09,0,0,0,0.00
2013-5-19,67.1,63.0,60.1,59.5,56.6,54.6,82,80,70,29.17,29.06,0,0,0,0.00
2013-5-20,91.9,73.5,64.9,63.7,56.2,42.2,81,60,19,29.09,28.97,0,0,0,0.00
2013-5-21,94.1,75.8,65.7,65.5,56.8,41.4,81,58,17,29.00,28.85,0,0,0,0.00
2013-5-22,95.2,74.8,67.1,64.1,53.8,30.7,81,56,11,28.94,28.82,0,0,0,0.25
2013-5-23,82.9,68.5,64.2,68.1,60.5,53.9,81,77,40,28.91,28.76,0,0,0,0.66
2013-5-24,64.6,52.1,42.8,58.3,33.2,18.4,82,51,30,29.17,28.79,5,0,5,0.66
2013-5-25,62.8,50.7,38.5,28.4,20.9,13.7,65,34,18,29.15,29.06,4,0,4,0.00
2013-5-26,73.9,56.0,41.9,26.7,22.3,13.5,53,29,16,29.23,29.14,2,0,3,0.00
2013-5-27,64.8,54.2,41.7,49.8,36.1,22.0,81,54,23,29.23,29.14,0,0,0,0.00
2013-5-28,84.9,64.1,52.7,61.8,53.9,42.6,83,72,30,29.17,29.06,0,0,0,0.13
2013-5-29,66.7,66.0,65.3,60.7,60.0,59.2,81,81,80,29.06,29.06,0,0,0,0.00
2013-5-30,74.1,73.9,73.4,53.2,52.9,52.3,48,48,47,29.14,29.14,0,0,0,0.00
2013-5-31,99.1,77.2,63.0,60.5,45.8,30.3,80,39,10,29.14,29.03,0,0,0,0.00
2013-6-1,92.7,76.2,65.7,62.4,53.1,39.1,78,48,17,29.06,28.91,3,0,3,0.00
2013-6-2,81.9,73.3,66.9,60.4,53.1,45.1,79,50,30,28.91,28.85,0,0,0,0.00
2013-6-3,79.2,68.0,59.5,64.9,54.3,42.6,81,64,32,29.00,28.85,0,0,0,0.00
2013-6-4,82.4,62.4,48.0,46.1,34.6,24.6,71,40,14,29.14,29.00,0,0,0,0.00
2013-6-5,84.0,65.1,50.9,50.5,42.3,32.2,85,49,16,29.14,29.03,0,0,0,0.00
2013-6-6,68.2,63.4,59.0,59.7,53.8,41.7,82,72,45,29.03,28.85,0,0,0,0.00
2013-6-7,68.7,66.6,64.9,62.0,60.1,58.6,80,80,79,28.88,28.67,0,0,0,0.00
2013-6-8,82.0,66.9,60.6,60.2,53.3,40.3,82,65,23,29.12,28.76,0,0,0,0.00
2013-6-9,84.9,69.5,59.7,62.6,55.6,47.7,83,65,30,29.17,29.09,0,0,0,0.00
2013-6-10,76.8,70.4,67.1,69.8,63.6,60.7,81,79,68,29.12,28.82,0,0,0,0.45
2013-6-11,79.0,69.3,65.3,62.1,58.0,51.7,81,69,39,28.91,28.79,0,0,0,0.45
2013-6-12,88.9,74.4,66.0,64.2,58.1,45.4,81,60,25,28.91,28.82,0,0,0,0.00
2013-6-13,75.9,68.9,64.0,65.3,58.5,41.3,81,70,42,28.88,28.55,0,0,0,0.50
2013-6-14,82.8,66.6,58.6,49.1,41.2,27.0,67,43,14,29.03,28.67,0,0,0,0.00
2013-6-15,87.6,68.0,57.6,53.4,40.7,24.6,80,43,13,29.12,29.00,0,0,0,0.00
2013-6-16,81.9,68.5,59.9,56.1,49.9,36.2,75,53,29,29.06,28.91,0,0,0,0.00
2013-6-17,88.2,73.5,65.8,60.6,53.4,41.3,75,53,20,29.00,28.91,0,0,0,0.09
2013-6-18,72.3,68.9,64.9,65.5,60.8,50.3,81,75,58,28.97,28.85,0,0,0,0.12
2013-6-19,84.6,67.4,61.3,60.7,52.4,34.5,82,63,19,29.14,28.91,0,0,0,0.12
2013-6-20,85.3,69.2,60.4,61.1,54.5,46.6,83,63,28,29.23,29.14,0,0,0,0.04
2013-6-21,91.6,72.0,61.3,60.7,52.3,39.9,82,56,17,29.29,29.20,0,0,0,0.00
2013-6-22,94.5,74.1,61.2,60.0,51.8,40.5,82,52,16,29.26,29.12,0,0,0,0.00
2013-6-23,94.1,75.3,65.8,65.4,57.5,44.1,81,58,19,29.20,29.09,0,0,0,0.00
2013-6-24,87.1,74.2,66.9,64.9,58.4,45.7,80,60,24,29.17,29.06,0,0,0,0.00
2013-6-25,96.6,78.8,68.4,63.1,54.2,37.1,78,50,14,29.06,28.94,0,0,0,0.00
2013-6-26,87.3,77.1,69.6,63.3,57.3,48.2,79,53,27,28.94,28.85,0,0,0,0.00
2013-6-27,80.4,73.0,67.5,68.4,62.7,57.4,81,71,49,28.88,28.67,0,0,0,1.17
2013-6-28,87.6,72.6,66.0,64.4,57.4,44.3,81,61,23,28.70,28.55,3,0,3,1.17
2013-6-29,89.6,71.6,63.3,64.6,53.2,37.1,81,57,18,28.73,28.55,0,0,0,0.08
2013-6-30,91.6,72.5,65.8,68.4,62.0,47.2,81,72,22,28.88,28.73,0,0,0,0.08
2013-7-1,84.7,73.9,69.6,68.1,63.1,54.1,81,71,35,28.97,28.85,0,0,0,0.00
2013-7-2,85.1,74.8,70.3,69.1,63.9,52.5,80,70,34,29.14,28.97,0,0,0,0.08
2013-7-3,87.1,75.1,69.8,67.6,63.3,56.3,79,68,36,29.23,29.12,0,0,0,0.00
2013-7-4,92.1,77.7,70.5,68.4,61.7,50.1,81,61,29,29.23,29.14,0,0,0,0.04
2013-7-5,92.7,78.9,70.2,67.0,59.2,49.2,80,55,24,29.20,29.12,0,0,0,0.04
2013-7-6,99.3,79.9,70.0,67.2,58.4,43.1,80,54,16,29.20,29.09,0,0,0,0.00
2013-7-7,88.2,73.8,68.0,65.3,60.1,47.5,81,64,30,29.14,29.06,2,0,2,0.63
2013-7-8,90.1,74.2,67.6,66.8,57.3,40.6,81,61,19,29.14,29.06,0,0,0,0.63
2013-7-9,87.8,74.3,69.3,67.2,62.9,55.1,80,69,34,29.12,29.03,0,0,0,0.04
2013-7-10,90.7,77.2,70.0,70.0,63.9,55.1,80,65,35,29.06,28.88,0,0,0,0.37
2013-7-11,85.5,73.2,66.7,64.1,59.1,49.1,81,64,30,29.00,28.88,0,0,0,0.09
2013-7-12,72.7,68.9,65.8,66.2,62.5,57.5,82,80,73,29.09,28.94,0,0,0,0.25
2013-7-13,84.6,73.2,68.0,66.2,61.7,49.3,82,70,32,29.29,29.09,0,0,0,0.00
2013-7-14,93.7,78.1,72.0,69.8,59.7,42.1,81,59,18,29.35,29.26,0,0,0,0.00
2013-7-15,101.5,78.4,69.1,68.4,58.7,43.5,82,57,15,29.35,29.23,0,0,0,0.04
2013-7-16,99.9,80.5,72.1,68.0,60.1,44.3,80,56,16,29.32,29.20,0,0,0,0.00
2013-7-17,96.4,80.4,72.3,67.1,61.9,49.5,77,56,23,29.29,29.14,0,0,0,0.00
2013-7-18,101.7,82.8,74.1,70.1,61.6,43.8,80,55,15,29.17,29.06,0,0,0,0.00
2013-7-19,100.4,80.2,70.9,67.3,61.3,45.0,79,57,16,29.06,28.91,2,0,2,0.00
2013-7-20,88.2,78.0,70.7,62.8,57.5,49.0,76,51,29,28.94,28.85,0,0,2,0.00
2013-7-21,84.0,74.1,69.4,67.0,61.0,51.4,81,65,35,29.00,28.94,0,0,0,0.00
2013-7-22,83.5,73.4,68.5,70.3,64.5,54.4,82,75,38,29.00,28.82,0,0,0,1.37
2013-7-23,91.4,74.7,67.1,68.4,62.0,43.7,80,68,22,28.82,28.73,0,0,0,0.12
2013-7-24,83.5,70.8,61.7,64.9,51.3,33.5,81,56,19,28.97,28.73,0,0,0,0.12
2013-7-25,87.6,65.8,56.3,50.0,41.5,27.0,73,46,13,29.06,28.97,0,0,0,0.00
2013-7-26,90.3,67.8,56.7,59.0,45.5,28.9,83,52,14,29.12,29.03,0,0,0,0.00
2013-7-27,75.4,68.1,62.4,63.1,58.8,47.2,81,73,46,29.06,28.91,0,0,0,0.00
2013-7-28,89.6,72.4,66.9,64.2,51.6,34.5,81,54,15,29.03,28.88,0,0,0,0.04
2013-7-29,82.9,67.0,57.2,52.1,41.4,30.1,75,43,16,29.17,29.00,0,0,0,0.00
2013-7-30,85.6,68.1,56.8,57.4,44.4,33.6,82,48,18,29.23,29.14,0,0,0,0.00
2013-7-31,81.9,68.1,61.2,63.5,54.2,44.6,81,63,29,29.17,29.00,0,0,0,0.05
2013-8-1,87.6,72.3,67.1,67.7,58.7,41.8,81,66,22,29.03,28.85,0,0,0,0.05
2013-8-2,86.9,72.7,65.1,60.7,47.0,30.6,81,48,16,29.00,28.91,0,0,0,0.04
2013-8-3,72.3,69.2,66.2,63.4,56.3,40.8,81,66,34,29.00,28.94,0,0,0,0.08
2013-8-4,80.4,67.8,61.3,60.9,46.8,28.4,82,54,17,29.06,28.97,0,0,0,0.00
2013-8-5,86.7,66.6,56.3,55.3,40.2,25.9,81,45,13,29.12,29.03,0,0,0,0.00
2013-8-6,84.9,68.0,60.4,56.6,47.4,35.9,70,50,21,29.09,29.00,0,0,0,0.00
2013-8-7,83.8,72.7,67.5,65.3,59.3,49.5,81,65,33,29.06,29.00,0,0,0,0.37
2013-8-8,80.1,73.4,69.6,71.5,65.7,61.0,81,77,56,29.06,28.97,0,0,0,0.25
2013-8-9,85.5,75.4,72.3,71.4,66.5,54.3,80,75,36,29.00,28.91,0,0,0,0.71
2013-8-10,91.8,73.7,67.6,68.6,59.6,39.1,79,66,17,29.09,29.00,0,0,0,0.71
2013-8-11,90.7,74.3,67.6,67.6,59.5,42.2,81,64,19,29.12,29.03,0,0,0,0.00
2013-8-12,93.6,75.4,68.7,67.0,56.7,35.8,80,58,14,29.09,28.94,0,0,0,0.00
2013-8-13,88.0,72.8,66.0,66.5,58.2,41.5,80,63,22,28.94,28.79,0,0,0,0.70
2013-8-14,74.5,61.5,52.0,49.5,38.3,29.6,80,46,21,29.12,28.91,0,0,0,0.00
2013-8-15,82.4,62.0,52.5,55.8,41.2,24.4,83,55,14,29.17,29.09,0,0,0,0.00
2013-8-16,86.9,64.5,54.5,56.2,42.9,30.4,83,52,16,29.20,29.12,0,0,0,0.00
2013-8-17,81.1,66.3,55.9,59.3,45.2,33.5,82,53,19,29.26,29.17,0,0,0,0.00
2013-8-18,73.2,64.4,61.0,60.2,54.0,42.3,82,71,33,29.26,29.17,0,0,0,0.29
2013-8-19,76.3,68.0,62.4,65.3,59.7,54.4,82,75,48,29.17,29.09,0,0,0,0.04
2013-8-20,91.2,72.7,65.7,66.8,52.2,30.3,81,56,12,29.20,29.12,0,0,0,0.04
2013-8-21,90.7,72.6,63.5,65.1,57.8,43.3,81,63,20,29.23,29.09,0,0,0,0.00
2013-8-22,91.0,75.7,68.9,64.6,51.2,40.0,79,46,18,29.12,29.00,0,0,0,0.00
2013-8-23,73.4,68.9,65.5,66.5,62.4,51.5,81,80,74,29.14,29.00,0,0,0,0.54
2013-8-24,87.8,68.5,60.4,62.1,48.6,28.1,82,57,13,29.32,29.14,0,0,0,0.54
2013-8-25,62.2,59.1,57.4,56.3,52.7,48.7,82,79,69,29.38,29.29,0,0,0,0.00
2013-8-26,92.5,76.6,61.3,54.2,45.1,35.6,77,37,14,29.26,29.06,0,0,0,0.00
2013-8-27,84.0,76.3,70.9,58.9,54.1,46.7,63,47,33,29.09,28.94,0,0,0,0.00
2013-8-28,74.1,72.8,71.4,67.2,65.2,58.1,80,77,63,28.97,28.85,0,0,0,1.04
2013-8-29,90.1,78.4,70.3,80.4,64.2,42.5,79,65,21,29.06,28.91,0,0,0,1.04
2013-8-30,94.3,75.7,67.8,70.3,57.4,39.5,80,60,16,29.06,28.88,0,0,0,0.00
2013-8-31,88.3,76.1,70.9,67.5,59.6,48.8,79,59,26,28.91,28.82,0,0,0,0.00
2013-9-1,90.7,75.7,69.4,68.2,60.3,43.3,80,62,20,28.91,28.82,0,0,0,0.00
2013-9-2,92.8,78.2,72.3,68.9,56.1,39.5,80,53,17,28.85,28.76,0,0,0,0.00
2013-9-3,84.6,71.6,62.8,59.3,44.0,28.4,76,42,16,29.00,28.79,3,0,3,0.00
2013-9-4,87.8,66.9,57.6,51.3,41.3,26.3,76,45,13,29.14,29.00,0,0,0,0.00
2013-9-5,82.8,68.4,61.5,48.2,39.8,27.0,61,38,14,29.17,29.03,3,0,3,0.00
2013-9-6,82.9,61.5,50.0,45.1,32.7,23.1,72,38,14,29.23,29.12,0,0,0,0.00
2013-9-7,89.2,64.0,51.8,53.2,39.8,26.7,82,49,13,29.14,28.97,0,0,0,0.00
2013-9-8,86.9,70.6,62.1,64.4,51.2,38.5,81,54,20,29.09,28.94,0,0,0,0.04
2013-9-9,76.5,66.1,58.3,58.4,41.5,32.1,74,42,24,29.20,29.09,0,0,0,0.00
2013-9-10,94.5,76.3,66.2,66.7,57.7,44.1,81,58,18,29.20,29.12,0,0,0,0.00
2013-9-11,96.3,79.2,71.4,69.1,58.9,42.0,80,57,16,29.20,29.06,0,0,0,0.00
2013-9-12,92.8,75.7,67.8,67.7,55.5,36.3,80,56,17,29.09,28.79,0,0,0,0.00
2013-9-13,76.6,64.4,53.6,60.0,41.7,26.0,76,46,18,29.00,28.79,0,0,0,0.00
2013-9-14,71.2,55.3,48.2,38.3,31.5,20.3,67,44,17,29.14,28.97,0,0,0,0.00
2013-9-15,81.3,60.3,46.8,50.4,39.9,30.1,84,54,17,29.17,29.06,0,0,0,0.00
2013-9-16,71.1,61.8,58.3,57.2,49.0,32.3,82,65,25,29.23,29.03,0,0,0,0.04
2013-9-17,75.0,56.1,46.6,45.5,31.2,18.7,75,44,16,29.38,29.20,0,0,0,0.04
2013-9-18,76.3,52.9,40.8,44.7,33.4,22.8,84,55,15,29.29,29.14,0,0,0,0.00
2013-9-19,75.4,66.2,57.6,52.1,44.3,38.8,75,47,28,29.14,29.06,0,0,0,0.00
2013-9-20,86.4,66.9,56.8,59.5,50.2,37.0,83,60,19,29.06,28.94,0,0,0,0.00
2013-9-21,70.0,65.7,62.1,61.2,56.9,52.9,83,74,55,28.97,28.73,0,0,0,0.83
2013-9-22,70.0,60.2,53.1,57.6,45.2,25.7,83,62,23,29.00,28.76,0,0,0,0.83
2013-9-23,68.9,54.5,46.9,42.0,31.0,24.8,67,42,22,29.09,28.97,0,0,0,0.00
2013-9-24,75.4,53.7,42.3,48.8,36.4,23.2,84,59,16,29.09,28.94,0,0,0,0.00
2013-9-25,81.0,57.3,46.9,51.8,37.8,23.1,84,56,15,29.00,28.88,0,0,0,0.00
2013-9-26,82.6,59.1,50.2,52.3,40.2,23.9,84,57,14,29.09,28.94,0,0,0,0.00
2013-9-27,75.0,58.8,49.3,52.1,44.1,32.0,84,63,22,29.20,29.06,0,0,0,0.00
2013-9-28,64.2,58.0,52.2,56.7,46.1,34.5,83,68,34,29.29,29.20,0,0,0,0.00
2013-9-29,75.6,57.6,47.5,54.9,40.0,27.0,85,59,18,29.20,29.03,0,0,0,0.00
2013-9-30,81.7,60.8,50.0,52.6,41.9,27.9,84,56,17,29.06,28.97,0,0,0,0.00
2013-10-1,79.9,66.0,59.4,57.6,46.4,33.8,82,54,21,29.09,29.00,0,0,0,0.00
2013-10-2,86.5,68.2,59.4,54.8,46.2,31.8,81,51,16,29.12,29.06,0,0,0,0.00
2013-10-3,86.5,68.2,59.5,58.8,50.2,36.8,82,58,19,29.14,29.09,0,0,0,0.00
2013-10-4,87.3,70.8,63.0,60.5,51.7,37.5,81,57,19,29.14,29.06,0,0,0,0.00
2013-10-5,88.9,72.4,63.1,60.3,50.5,36.0,81,52,18,29.14,29.03,0,0,0,0.00
2013-10-6,91.8,73.4,62.6,60.2,47.4,30.2,81,48,12,29.06,28.91,0,0,0,0.00
2013-10-7,72.9,61.9,50.2,61.8,47.7,27.7,82,62,28,29.09,28.76,2,0,2,0.71
2013-10-8,71.6,55.5,46.4,46.8,33.9,20.3,83,49,17,29.26,29.09,2,0,2,0.71
2013-10-9,60.1,52.5,45.3,48.0,34.0,21.9,84,54,24,29.32,29.23,0,0,0,0.00
2013-10-10,56.1,53.2,49.8,51.0,44.7,29.6,84,74,47,29.23,29.03,0,0,0,0.91
2013-10-11,61.0,57.5,55.0,55.8,52.6,50.1,84,84,83,29.06,28.97,0,0,0,1.08
2013-10-12,66.9,63.1,59.5,60.6,57.3,53.5,83,81,79,29.17,29.00,0,0,0,0.45
2013-10-13,61.9,60.9,59.9,56.3,55.4,54.4,83,82,82,29.29,29.17,0,0,0,0.50
2013-10-14,62.6,60.7,58.8,56.7,54.1,49.1,82,79,64,29.29,29.20,0,0,0,0.50
2013-10-15,72.5,61.7,57.7,59.7,47.8,31.5,83,65,23,29.26,29.09,0,0,0,0.00
2013-10-16,69.6,60.0,52.9,54.6,48.4,39.2,84,67,36,29.09,28.91,0,0,0,0.00
2013-10-17,68.4,62.8,53.1,60.7,55.7,37.3,82,78,55,28.94,28.70,0,0,0,0.17
2013-10-18,68.5,54.2,45.7,41.0,30.3,18.5,71,43,17,29.00,28.88,3,0,3,0.00
2013-10-19,59.2,49.2,41.7,47.7,37.8,24.0,86,67,37,29.00,28.76,3,0,3,0.00
2013-10-20,65.5,49.6,40.6,29.0,22.8,15.3,63,37,18,29.06,28.85,2,0,2,0.00
2013-10-21,75.0,51.2,36.9,37.8,28.1,19.9,86,48,16,29.09,28.91,0,0,0,0.00
2013-10-22,58.5,50.9,41.0,39.3,28.9,13.7,69,45,20,28.91,28.82,5,0,5,0.00
2013-10-23,50.2,41.2,35.4,34.6,28.2,23.3,83,61,37,28.88,28.70,2,0,2,0.00
2013-10-24,46.4,39.1,34.0,35.9,24.5,13.4,87,58,28,29.09,28.88,3,0,3,0.00
2013-10-25,49.8,38.2,31.8,27.9,20.6,12.8,81,52,26,29.26,29.09,3,0,3,0.00
2013-10-26,57.4,42.9,27.9,24.9,16.2,9.4,80,40,17,29.26,28.88,4,0,4,0.00
2013-10-27,59.4,47.3,39.2,26.1,18.2,10.9,55,33,17,29.09,28.91,5,0,5,0.00
2013-10-28,63.5,45.7,33.6,33.1,23.8,15.5,85,48,18,29.23,29.09,0,0,0,0.00
2013-10-29,66.2,48.6,36.5,36.9,27.3,16.7,85,49,17,29.35,29.23,3,0,3,0.00
2013-10-30,71.6,55.9,44.4,44.0,35.4,27.3,82,49,22,29.26,29.12,0,0,0,0.00
2013-10-31,68.4,59.7,54.0,56.5,48.7,38.9,82,68,34,29.17,28.67,2,0,2,0.04
2013-11-1,73.6,63.5,52.9,54.8,37.3,20.9,79,42,16,28.73,28.50,15,0,15,0.21
2013-11-2,59.7,51.7,43.2,38.1,30.6,21.5,68,46,24,28.85,28.64,9,0,9,0.21
2013-11-3,58.3,47.0,37.0,31.0,18.3,5.0,55,34,17,29.35,28.85,3,0,4,0.00
2013-11-4,45.9,36.0,27.0,12.0,7.6,1.5,51,31,20,29.53,29.35,2,0,2,0.00
2013-11-5,53.2,42.6,32.2,34.9,15.7,4.2,61,35,18,29.53,29.35,0,0,0,0.00
2013-11-6,72.0,56.8,44.2,43.6,34.8,27.8,84,48,22,29.35,28.97,5,0,5,0.00
2013-11-7,59.4,50.9,38.3,52.8,31.7,7.8,84,50,26,29.06,28.85,13,0,13,0.20
2013-11-8,48.0,38.5,30.2,21.7,13.8,4.7,59,38,20,29.23,29.03,9,0,9,0.20
2013-11-9,59.7,41.4,26.1,22.8,15.0,7.9,78,40,17,29.23,28.94,4,0,4,0.00
2013-11-10,57.9,49.7,39.0,17.7,12.0,5.7,31,22,18,29.17,28.91,11,0,11,0.00
2013-11-11,60.1,45.6,32.4,22.4,15.1,9.7,65,33,17,29.20,28.97,9,0,9,0.00
2013-11-12,51.3,36.3,26.8,28.1,8.5,-2.0,55,33,21,29.32,28.94,6,0,6,0.00
2013-11-13,42.8,32.2,25.5,7.7,4.3,-0.9,43,31,20,29.38,29.26,13,0,13,0.00
2013-11-14,59.2,42.3,32.0,16.8,4.8,-1.0,28,21,17,29.29,29.14,10,0,10,0.00
2013-11-15,63.7,42.6,26.8,20.6,8.1,-1.0,42,25,17,29.20,29.09,3,0,3,0.00
2013-11-16,65.8,50.2,39.6,46.3,34.2,16.2,82,59,24,29.23,29.12,3,0,3,0.00
2013-11-17,63.9,56.8,50.4,52.3,47.5,42.2,85,72,46,29.12,28.64,8,0,8,0.00
2013-11-18,62.6,54.6,45.1,50.5,15.0,6.4,68,21,17,28.91,28.64,13,0,13,0.05
2013-11-19,44.8,37.5,29.5,15.5,9.8,5.8,55,32,22,29.29,28.91,8,0,8,0.05
2013-11-20,51.3,34.3,23.2,21.0,10.1,-0.1,74,40,19,29.44,29.29,3,0,3,0.00
2013-11-21,53.2,38.8,30.4,31.3,23.9,15.1,82,57,27,29.44,29.29,0,0,0,0.00
2013-11-22,56.8,47.6,39.6,51.7,36.0,27.8,83,65,40,29.29,29.00,8,0,8,0.00
2013-11-23,46.0,36.7,25.2,32.3,11.6,-2.6,62,37,21,29.17,29.00,10,0,10,0.00
2013-11-24,25.3,21.7,15.3,-1.9,-7.1,-9.6,45,28,24,29.38,29.29,8,0,8,0.00
2013-11-25,40.5,26.4,14.4,3.6,-2.5,-7.6,45,29,21,29.38,29.17,4,0,4,0.00
2013-11-26,37.6,34.0,30.9,34.3,18.5,-1.6,88,60,23,29.20,28.61,0,0,0,1.41
2013-11-27,39.4,33.2,23.9,36.1,22.3,1.3,89,66,37,28.97,28.52,8,0,8,1.41
2013-11-28,34.7,26.5,19.8,17.6,6.7,-1.3,67,44,27,29.32,28.97,14,0,14,0.00
2013-11-29,39.0,28.9,23.2,22.2,14.8,5.4,79,58,26,29.56,29.32,3,0,3,0.00
2013-11-30,33.8,26.8,21.2,19.1,13.0,7.1,88,59,33,29.56,29.20,2,0,2,0.00
2013-12-1,43.0,31.1,21.9,22.4,17.5,12.3,87,60,30,29.20,28.94,0,0,0,0.00
2013-12-2,46.9,38.0,33.8,24.8,21.3,15.9,67,52,29,28.94,28.82,0,0,0,0.00
2013-12-3,59.0,41.6,34.0,31.1,26.0,17.8,82,57,22,28.94,28.82,0,0,0,0.00
2013-12-4,58.5,45.2,35.8,45.2,33.1,22.6,88,67,26,29.03,28.91,0,0,0,0.00
2013-12-5,59.7,52.8,45.5,52.8,45.3,37.2,87,77,44,28.97,28.88,0,0,0,0.05
2013-12-6,56.7,45.0,37.9,51.9,41.1,34.7,88,86,84,29.12,28.85,3,0,3,1.57
2013-12-7,38.1,32.7,25.0,34.9,19.9,7.4,88,61,40,29.44,29.12,5,0,5,1.57
2013-12-8,28.6,24.0,22.1,25.6,15.1,5.9,89,69,47,29.44,29.20,0,0,0,0.00
2013-12-9,42.4,34.9,28.6,37.8,29.3,20.2,90,80,53,29.20,28.94,5,0,5,0.13
2013-12-10,37.0,31.8,23.2,31.9,15.3,0.1,88,54,30,29.12,28.91,8,0,8,0.13
2013-12-11,39.9,28.3,18.1,8.4,2.3,-2.4,53,33,21,29.26,29.09,8,0,10,0.00
2013-12-12,31.5,24.2,19.8,7.4,-4.5,-9.3,39,28,23,29.29,29.12,9,0,9,0.00
2013-12-13,42.1,29.8,19.2,13.5,-0.6,-8.5,50,27,21,29.20,29.09,10,0,10,0.00
2013-12-14,36.5,33.9,28.0,33.4,27.4,9.4,89,78,42,29.20,28.70,0,0,0,0.04
2013-12-15,39.0,34.2,29.7,36.1,23.5,9.4,90,68,41,28.85,28.58,9,0,9,0.00
2013-12-16,35.6,30.1,27.5,17.1,12.2,6.4,60,47,31,29.06,28.85,3,0,3,0.00
2013-12-17,44.2,33.0,28.4,26.8,22.9,16.8,85,68,38,29.00,28.82,8,0,8,0.04
2013-12-18,33.4,30.7,25.0,19.9,8.4,5.0,67,39,31,29.09,28.91,8,0,8,0.04
2013-12-19,59.7,38.0,21.2,19.3,13.2,8.2,67,41,17,29.06,28.97,10,0,10,0.04
2013-12-20,57.9,47.0,35.1,28.9,21.3,16.5,55,37,22,29.03,28.88,5,0,5,0.00
2013-12-21,69.6,58.0,49.1,49.5,36.3,24.2,66,45,23,28.91,28.79,4,0,4,0.00
2013-12-22,68.4,62.3,56.7,55.1,47.4,36.3,80,59,33,28.94,28.70,10,0,10,0.04
2013-12-23,58.6,48.1,33.1,54.0,34.8,7.8,86,62,34,29.17,28.88,10,0,10,0.21
2013-12-24,34.2,27.8,17.4,11.2,1.8,-10.2,42,32,23,29.35,29.12,11,0,11,0.00
2013-12-25,34.9,22.8,14.7,0.6,-3.5,-6.9,45,32,22,29.41,29.17,3,0,3,0.00
2013-12-26,41.7,30.4,23.9,12.1,4.5,0.1,42,33,21,29.23,29.09,10,0,10,0.00
2013-12-27,49.8,35.9,26.1,9.2,5.5,1.0,44,29,19,29.29,29.20,8,0,8,0.00
2013-12-28,59.2,44.7,33.6,16.7,8.2,2.4,30,23,17,29.23,29.03,11,0,11,0.00
2013-12-29,48.0,44.1,38.3,44.6,33.4,7.7,88,70,26,29.03,28.55,6,0,6,1.20
2013-12-30,44.6,35.0,27.5,28.7,16.3,6.4,60,46,40,29.09,28.76,4,0,10,0.00
2013-12-31,36.3,29.4,26.1,13.1,8.3,1.7,56,42,24,29.06,28.97,8,0,9,0.00
2014-1-1,31.1,30.6,30.0,13.6,13.3,12.9,50,48,47,29.03,29.03,0,0,0,0.00
2014-1-2,30.0,27.6,25.3,26.2,19.1,13.2,93,72,50,29.80,28.73,6,0,6,0.00